Torna al catalogo

IRIDIUM 44

AttivoComunicazioniPO
NORAD 25078·PAYLOAD·🇺🇸 United States

Lanciato Dec 8, 1997 da Taiyuan Satellite Launch Center

Loading…

Prossimi Passaggi (prossime 24 ore)

TLE

AggiornatoSource: Space-Track

Epoca: Sep 14, 2026, 08:56 UTC

1 25078U 97077B   26257.37237266  .00000252  00000-0  72742-4 0  9995
2 25078  86.3974  29.4799 0002132  39.9572 320.1784 14.40613050509085

Traccia IRIDIUM 44 in tempo reale con AllMySat

Download on the App Store